KC9GRK Weather Reports


time (UTC)temp
C
wind
direction
speed
KPH
gust
KPH
rain 1hr
cm
rain 24hr
cm
rain mn
cm
humidity
%
barometer
mb
20260503204544 18 211 19.3 37.0 0.00 0.00 0.00 45 1004.5
20260503203025 18 177 16.1 38.6 0.00 0.00 0.00 47 1004.9
20260503201527 18 191 29.0 54.7 0.00 0.00 0.00 45 1005.1
20260503200137 18 175 20.9 51.5 0.00 0.00 0.00 46 1005.4
20260503194548 18 188 24.1 46.7 0.00 0.00 0.00 43 1005.7
20260503193052 18 150 17.7 57.9 0.00 0.00 0.00 44 1005.7
20260503191547 18 156 25.7 51.5 0.00 0.00 0.00 42 1005.8
20260503190151 18 124 24.1 53.1 0.00 0.00 0.00 45 1006.0
20260503184552 18 183 25.7 45.1 0.00 0.00 0.00 45 1006.1
20260503183058 17 180 27.4 49.9 0.00 0.00 0.00 45 1006.3
20260503181545 17 204 17.7 37.0 0.00 0.00 0.00 48 1006.6
20260503180151 17 126 25.7 43.5 0.00 0.00 0.00 47 1007.0
20260503174606 16 186 22.5 46.7 0.00 0.00 0.00 51 1007.2
20260503173121 16 156 22.5 45.1 0.00 0.00 0.00 51 1007.6
20260503171556 15 164 24.1 45.1 0.00 0.00 0.00 54 1007.7
20260503170201 14 195 22.5 45.1 0.00 0.00 0.00 56 1008.1
20260503150116 13 184 19.3 37.0 0.00 0.00 0.00 54 1009.2
20260503140140 13 195 20.9 40.2 0.00 0.00 0.00 55 1009.7
20260503130159 11 177 16.1 30.6 0.00 0.00 0.00 57 1010.5
20260503120146 9 196 16.1 27.4 0.00 0.00 0.00 57 1010.5
20260503110143 9 192 12.9 22.5 0.00 0.00 0.00 57 1010.5
20260503100158 8 200 12.9 24.1 0.00 0.00 0.00 56 1010.9
20260503081501 8 150 6.4 16.1 0.00 0.00 0.00 56 1011.8
20260503071527 8 177 9.7 17.7 0.00 0.00 0.00 56 1012.3
20260503070133 8 180 8.0 19.3 0.00 0.00 0.00 56 1012.3
20260503060152 8 210 9.7 20.9 0.00 0.00 0.00 56 1012.7
20260503054503 8 165 9.7 20.9 0.00 0.00 0.00 56 1012.9
20260503053002 8 174 8.0 17.7 0.00 0.00 0.00 56 1013.1
20260503051504 8 224 6.4 16.1 0.00 0.00 0.00 57 1013.2
20260503044603 7 190 6.4 14.5 0.00 0.00 0.00 62 1013.4
20260503043056 7 167 3.2 4.8 0.00 0.00 0.00 65 1013.5
20260503041608 6 169 1.6 4.8 0.00 0.00 0.00 69 1013.5
20260503034608 6 196 0.0 1.6 0.00 0.00 0.00 70 1013.9
20260503033102 6 167 1.6 4.8 0.00 0.00 0.00 70 1014.0
20260503031600 6 186 1.6 4.8 0.00 0.00 0.00 69 1014.1
20260503030009 6 152 1.6 6.4 0.00 0.00 0.00 68 1014.4
20260503024510 7 167 1.6 4.8 0.00 0.00 0.00 66 1014.4
20260503023007 7 134 1.6 4.8 0.00 0.00 0.00 65 1014.5
20260503021503 7 152 1.6 6.4 0.00 0.00 0.00 64 1014.4
20260503020018 7 152 3.2 8.0 0.00 0.00 0.00 62 1014.4
20260503014521 8 152 1.6 6.4 0.00 0.00 0.00 60 1014.3
20260503013017 8 109 1.6 6.4 0.00 0.00 0.00 58 1014.1
20260503011515 8 136 1.6 8.0 0.00 0.00 0.00 57 1014.1
20260503010120 9 120 3.2 6.4 0.00 0.00 0.00 55 1014.2
20260503004531 10 102 3.2 12.9 0.00 0.00 0.00 53 1014.3
20260503003034 10 19 0.0 6.4 0.00 0.00 0.00 55 1014.3
20260503001532 10 68 6.4 19.3 0.00 0.00 0.00 54 1014.2
20260503000134 11 90 4.8 16.1 0.00 0.00 0.00 51 1014.3
20260502234551 11 76 3.2 8.0 0.00 0.00 0.00 51 1014.4
20260502233045 11 134 3.2 8.0 0.00 0.00 0.00 51 1014.6
20260502231601 11 116 3.2 11.3 0.00 0.00 0.00 49 1014.7
20260502230153 12 152 3.2 12.9 0.00 0.00 0.00 45 1014.9
20260502224503 12 222 1.6 19.3 0.00 0.00 0.00 47 1015.1
20260502223101 11 57 4.8 19.3 0.00 0.00 0.00 48 1015.1
20260502221604 11 78 4.8 9.7 0.00 0.00 0.00 48 1015.2
20260502214605 13 187 6.4 24.1 0.00 0.00 0.00 37 1015.6
20260502213101 13 179 3.2 20.9 0.00 0.00 0.00 37 1015.6
20260502211601 14 179 12.9 24.1 0.00 0.00 0.00 35 1015.6
20260502210017 13 283 3.2 22.5 0.00 0.00 0.00 37 1015.9